カタログに戻る

STARLINK-36499

運用中通信VLEO
NORAD 67359·PAYLOAD·🇺🇸 United States

打ち上げ Jan 9, 2026 から Cape Canaveral Space Force Station

Loading…

次のパス (今後24時間)

TLE

最新Source: CelesTrak SupGP

元期: Sep 14, 2026, 23:21 UTC

1 67359C 26003AB  26257.97340278 -.00127500  00000+0 -46270-2 0  2577
2 67359  43.0016 238.5162 0001217 265.1038 233.8132 15.27579758    18

AllMySatでSTARLINK-36499をリアルタイム追跡

Download on the App Store